EW7271 Weather Reports


Display with metric or nautical units.
time (UTC)temp
F
wind
direction
speed
MPH
gust
MPH
rain 1hr
in
rain 24hr
in
rain mn
in
humidity
%
barometer
mb
20210921064715 68 61 0.0 3.0 0.00 0.00 0.00 90 1021.9
20210921064208 68 41 0.0 0.0 0.00 0.00 0.00 89 1022.0
20210921063706 68 44 0.0 1.0 0.00 0.00 0.00 89 1022.0
20210921063147 69 38 0.0 6.0 0.00 0.00 0.00 89 1022.0
20210921062639 69 38 1.0 6.0 0.00 0.00 0.00 89 1022.0
20210921062123 69 53 2.0 7.0 0.00 0.00 0.00 89 1022.1
20210921061618 69 67 2.0 7.0 0.00 0.00 0.00 89 1022.1
20210921061123 69 26 2.0 7.0 0.00 0.00 0.00 88 1022.1
20210921060617 69 57 2.0 7.0 0.00 0.00 0.00 88 1022.2
20210921060119 69 66 3.0 8.0 0.00 0.00 0.00 88 1022.2
20210921055603 69 76 2.0 8.0 0.00 0.00 0.00 88 1022.1
20210921055048 69 57 3.0 8.0 0.00 0.00 0.00 88 1022.2
20210921054531 69 45 2.0 8.0 0.00 0.00 0.00 88 1022.4
20210921054038 69 57 3.0 7.0 0.00 0.00 0.00 88 1022.3
20210921053532 69 53 2.0 7.0 0.00 0.00 0.00 88 1022.4
20210921053014 69 86 2.0 7.0 0.00 0.00 0.00 88 1022.5
20210921052458 69 43 3.0 10.0 0.00 0.00 0.00 88 1022.5
20210921052003 69 71 2.0 10.0 0.00 0.00 0.00 88 1022.5
20210921051455 69 57 2.0 10.0 0.00 0.00 0.00 88 1022.6
20210921050937 69 53 2.0 10.0 0.00 0.00 0.00 88 1022.5
20210921050425 69 60 1.0 8.0 0.00 0.00 0.00 87 1022.7
20210921045920 69 38 2.0 8.0 0.00 0.00 0.00 87 1022.8
20210921045407 69 60 3.0 8.0 0.00 0.00 0.00 87 1023.0
20210921044914 69 40 3.0 8.0 0.00 0.00 0.00 87 1023.0
20210921044412 69 67 3.0 8.0 0.00 0.00 0.00 87 1023.0
20210921043901 69 59 2.0 8.0 0.00 0.00 0.00 87 1023.0
20210921043353 69 46 2.0 8.0 0.00 0.00 0.00 87 1022.9
20210921042844 69 24 2.0 6.0 0.00 0.00 0.00 86 1023.0
20210921042338 69 47 1.0 5.0 0.00 0.00 0.00 86 1023.1
20210921041827 69 46 1.0 4.0 0.00 0.00 0.00 86 1023.1
20210921041317 69 59 0.0 4.0 0.00 0.00 0.00 86 1023.1
20210921040822 69 36 0.0 3.0 0.00 0.00 0.00 85 1023.1
20210921040316 69 69 1.0 7.0 0.00 0.00 0.00 85 1023.2
20210921035809 70 58 1.0 7.0 0.00 0.00 0.00 85 1023.2
20210921035319 70 65 1.0 7.0 0.00 0.00 0.00 84 1023.2
20210921034823 70 333 1.0 7.0 0.00 0.00 0.00 84 1023.2
20210921034326 70 65 1.0 3.0 0.00 0.00 0.00 83 1023.3
20210921033807 70 46 0.0 3.0 0.00 0.00 0.00 83 1023.3
20210921033310 70 48 0.0 5.0 0.00 0.00 0.00 83 1023.4
20210921032806 70 47 1.0 5.0 0.00 0.00 0.00 82 1023.4
20210921032259 70 45 1.0 5.0 0.00 0.00 0.00 82 1023.5
20210921031750 70 58 2.0 5.0 0.00 0.00 0.00 81 1023.6
20210921031300 70 79 2.0 5.0 0.00 0.00 0.00 81 1023.6
20210921030800 70 51 2.0 5.0 0.00 0.00 0.00 81 1023.7
20210921030304 70 64 2.0 4.0 0.00 0.00 0.00 81 1023.6
20210921025756 71 57 1.0 4.0 0.00 0.00 0.00 81 1023.5
20210921025251 71 60 1.0 4.0 0.00 0.00 0.00 81 1023.5
20210921024743 71 59 1.0 4.0 0.00 0.00 0.00 80 1023.6
20210921024242 71 63 1.0 6.0 0.00 0.00 0.00 80 1023.6
20210921023741 72 48 2.0 6.0 0.00 0.00 0.00 79 1023.7
20210921023243 72 54 1.0 7.0 0.00 0.00 0.00 78 1023.7
20210921022734 72 86 2.0 7.0 0.00 0.00 0.00 78 1023.5
20210921022239 73 93 2.0 7.0 0.00 0.00 0.00 77 1023.5
20210921021725 73 69 2.0 7.0 0.00 0.00 0.00 77 1023.4
20210921021234 73 61 2.0 6.0 0.00 0.00 0.00 76 1023.4
20210921020743 73 64 3.0 10.0 0.00 0.00 0.00 75 1023.4
20210921020252 73 46 4.0 10.0 0.00 0.00 0.00 75 1023.4
20210921015758 73 43 4.0 10.0 0.00 0.00 0.00 75 1023.4
20210921015251 73 79 4.0 10.0 0.00 0.00 0.00 74 1023.4
20210921014743 73 83 4.0 10.0 0.00 0.00 0.00 74 1023.4
20210921014246 74 67 4.0 10.0 0.00 0.00 0.00 74 1023.4
20210921013756 74 57 4.0 10.0 0.00 0.00 0.00 74 1023.4
20210921013240 74 49 4.0 10.0 0.00 0.00 0.00 74 1023.3
20210921012736 74 65 4.0 9.0 0.00 0.00 0.00 74 1023.3
20210921012225 74 71 4.0 9.0 0.00 0.00 0.00 74 1023.3
20210921011707 74 72 3.0 8.0 0.00 0.00 0.00 74 1023.3
20210921011217 74 84 3.0 5.0 0.00 0.00 0.00 74 1023.2
20210921010701 74 63 2.0 8.0 0.00 0.00 0.00 75 1023.1
20210921010201 74 59 2.0 8.0 0.00 0.00 0.00 75 1023.0
20210921005647 74 54 3.0 8.0 0.00 0.00 0.00 74 1023.0
20210921005140 74 67 2.0 8.0 0.00 0.00 0.00 74 1023.0
20210921004642 74 57 2.0 8.0 0.00 0.00 0.00 74 1023.0
20210921004144 74 51 3.0 8.0 0.00 0.00 0.00 74 1022.9
20210921003645 74 84 3.0 8.0 0.00 0.00 0.00 74 1022.7
20210921003153 75 70 3.0 8.0 0.00 0.00 0.00 74 1022.8
20210921002641 74 53 2.0 8.0 0.00 0.00 0.00 74 1022.7
20210921002142 74 50 2.0 8.0 0.00 0.00 0.00 74 1022.6
20210921001644 75 64 2.0 8.0 0.00 0.00 0.00 74 1022.6
20210921001152 75 65 2.0 8.0 0.00 0.00 0.00 73 1022.5
20210921000647 75 74 1.0 4.0 0.00 0.00 0.00 73 1022.4
20210921000132 75 59 1.0 4.0 0.00 0.00 0.00 73 1022.3
20210920235641 75 61 2.0 5.0 0.00 0.00 0.00 74 1022.3
20210920235136 75 62 2.0 5.0 0.00 0.00 0.00 73 1022.2
20210920234625 75 61 2.0 5.0 0.00 0.00 0.00 73 1022.2
20210920234115 75 51 1.0 5.0 0.00 0.00 0.00 73 1022.2
20210920233621 76 72 0.0 4.0 0.00 0.00 0.00 73 1022.1
20210920233124 76 37 0.0 3.0 0.00 0.00 0.00 73 1022.0
20210920232617 76 53 1.0 3.0 0.00 0.00 0.00 73 1022.0
20210920232116 77 49 1.0 8.0 0.00 0.00 0.00 72 1022.0
20210920231606 77 59 2.0 8.0 0.00 0.00 0.00 71 1022.0
20210920231057 77 59 2.0 8.0 0.00 0.00 0.00 71 1022.0
20210920230545 77 49 1.0 8.0 0.00 0.00 0.00 70 1022.0
20210920230026 78 44 1.0 7.0 0.00 0.00 0.00 70 1021.9
20210920225522 78 49 2.0 7.0 0.00 0.00 0.00 70 1022.0
20210920225017 78 48 2.0 6.0 0.00 0.00 0.00 69 1021.9
20210920224517 79 45 1.0 10.0 0.00 0.00 0.00 69 1021.9
20210920224012 79 52 2.0 10.0 0.00 0.00 0.00 69 1021.8
20210920223513 79 0 4.0 10.0 0.00 0.00 0.00 68 1021.8
20210920223021 79 67 3.0 10.0 0.00 0.00 0.00 67 1021.8
20210920222517 79 100 3.0 9.0 0.00 0.00 0.00 68 1021.9
20210920222004 80 59 4.0 11.0 0.00 0.00 0.00 67 1022.0
20210920221510 80 31 3.0 11.0 0.00 0.00 0.00 67 1021.9
20210920221020 80 60 3.0 11.0 0.00 0.00 0.00 65 1021.9
20210920220524 80 111 4.0 11.0 0.00 0.00 0.00 65 1022.0
20210920220017 81 75 5.0 11.0 0.00 0.00 0.00 65 1022.0
20210920215517 81 57 6.0 11.0 0.00 0.00 0.00 65 1021.9
20210920215001 81 76 5.0 10.0 0.00 0.00 0.00 65 1021.9
20210920214454 81 61 4.0 8.0 0.00 0.00 0.00 65 1021.9
20210920213936 82 51 3.0 11.0 0.00 0.00 0.00 65 1021.8
20210920213435 82 61 3.0 11.0 0.00 0.00 0.00 65 1021.7
20210920212924 82 5 4.0 11.0 0.00 0.00 0.00 65 1021.6
20210920212431 82 60 3.0 11.0 0.00 0.00 0.00 65 1021.6
20210920211936 82 140 2.0 9.0 0.00 0.00 0.00 66 1021.7
20210920211419 82 74 2.0 9.0 0.00 0.00 0.00 65 1021.7
20210920210914 82 80 1.0 12.0 0.00 0.00 0.00 66 1021.7
20210920210358 82 26 2.0 12.0 0.00 0.00 0.00 65 1021.8
20210920205855 82 18 5.0 12.0 0.00 0.00 0.00 64 1021.7
20210920205402 83 42 5.0 12.0 0.00 0.00 0.00 63 1021.7
20210920204854 84 81 4.0 12.0 0.00 0.00 0.00 63 1021.7
20210920204346 84 101 5.0 12.0 0.00 0.00 0.00 63 1021.7
20210920203827 85 70 5.0 13.0 0.00 0.00 0.00 63 1021.8
20210920203318 84 34 5.0 13.0 0.00 0.00 0.00 64 1021.8
20210920202809 85 73 5.0 13.0 0.00 0.00 0.00 62 1021.9
20210920202305 84 77 6.0 13.0 0.00 0.00 0.00 63 1021.9
20210920201743 84 74 5.0 12.0 0.00 0.00 0.00 63 1021.8
20210920201245 84 44 3.0 12.0 0.00 0.00 0.00 63 1021.9
20210920200747 83 77 3.0 12.0 0.00 0.00 0.00 64 1021.9
20210920200240 83 133 4.0 12.0 0.00 0.00 0.00 64 1021.8
20210920195736 84 69 5.0 12.0 0.00 0.00 0.00 64 1021.9
20210920195226 84 13 5.0 11.0 0.00 0.00 0.00 64 1021.9
20210920194717 85 98 5.0 11.0 0.00 0.00 0.00 64 1022.0
20210920194224 85 61 4.0 11.0 0.00 0.00 0.00 62 1022.0
20210920193731 84 90 5.0 11.0 0.00 0.00 0.00 64 1022.1
20210920193219 84 72 6.0 11.0 0.00 0.00 0.00 63 1022.1
20210920192706 85 78 5.0 11.0 0.00 0.00 0.00 62 1022.1
20210920192203 84 5 4.0 11.0 0.00 0.00 0.00 65 1022.1
20210920191704 84 349 4.0 11.0 0.00 0.00 0.00 64 1022.2
20210920191209 85 76 5.0 11.0 0.00 0.00 0.00 62 1022.2
20210920190706 84 56 5.0 11.0 0.00 0.00 0.00 63 1022.2
20210920190159 84 71 4.0 10.0 0.00 0.00 0.00 64 1022.2
20210920185700 84 53 2.0 10.0 0.00 0.00 0.00 63 1022.2
20210920185206 85 51 2.0 10.0 0.00 0.00 0.00 65 1022.2
20210920184701 84 343 2.0 10.0 0.00 0.00 0.00 63 1022.3
20210920184146 84 9 4.0 11.0 0.00 0.00 0.00 64 1022.4
20210920183626 83 61 5.0 11.0 0.00 0.00 0.00 62 1022.4
20210920183113 84 121 5.0 11.0 0.00 0.00 0.00 63 1022.5
20210920182614 84 87 5.0 11.0 0.00 0.00 0.00 63 1022.6
20210920182116 84 64 4.0 13.0 0.00 0.00 0.00 62 1022.6
20210920181600 83 93 4.0 13.0 0.00 0.00 0.00 62 1022.6
20210920181057 83 45 5.0 13.0 0.00 0.00 0.00 63 1022.7
20210920180543 83 80 5.0 13.0 0.00 0.00 0.00 63 1022.7
20210920180050 84 74 5.0 13.0 0.00 0.00 0.00 63 1022.7
20210920175535 84 48 5.0 13.0 0.00 0.00 0.00 63 1022.8
20210920175027 84 61 4.0 13.0 0.00 0.00 0.00 61 1022.8
20210920174515 83 265 3.0 11.0 0.00 0.00 0.00 65 1022.9
20210920174007 83 53 4.0 11.0 0.00 0.00 0.00 66 1023.0
20210920173508 83 74 5.0 10.0 0.00 0.00 0.00 63 1023.1
20210920173015 83 47 4.0 11.0 0.00 0.00 0.00 64 1023.0
20210920172516 83 109 4.0 11.0 0.00 0.00 0.00 65 1023.1
20210920172024 83 86 4.0 11.0 0.00 0.00 0.00 65 1023.1
20210920171523 83 73 3.0 13.0 0.00 0.00 0.00 64 1023.1
20210920171008 82 34 3.0 13.0 0.00 0.00 0.00 65 1023.2
20210920170459 83 56 4.0 13.0 0.00 0.00 0.00 66 1023.2
20210920170003 84 87 2.0 10.0 0.00 0.00 0.00 66 1023.2
20210920165501 84 65 2.0 12.0 0.00 0.00 0.00 65 1023.3
20210920165001 83 92 3.0 12.0 0.00 0.00 0.00 67 1023.3
20210920164506 83 44 4.0 12.0 0.00 0.00 0.00 68 1023.3
20210920163957 82 93 4.0 12.0 0.00 0.00 0.00 69 1023.2
20210920163438 82 60 3.0 11.0 0.00 0.00 0.00 66 1023.2
20210920162928 83 52 4.0 11.0 0.00 0.00 0.00 68 1023.2
20210920162430 82 347 4.0 10.0 0.00 0.00 0.00 71 1023.3
20210920161922 81 123 5.0 10.0 0.00 0.00 0.00 69 1023.3
20210920161421 81 110 5.0 10.0 0.00 0.00 0.00 70 1023.3
20210920160904 81 107 4.0 9.0 0.00 0.00 0.00 70 1023.4
20210920160409 81 293 4.0 10.0 0.00 0.00 0.00 69 1023.4
20210920155859 81 86 4.0 10.0 0.00 0.00 0.00 71 1023.5
20210920155401 80 233 5.0 10.0 0.00 0.00 0.00 70 1023.5
20210920154851 80 21 5.0 10.0 0.00 0.00 0.00 73 1023.5
20210920154337 80 88 5.0 12.0 0.00 0.00 0.00 70 1023.5
20210920153839 80 47 5.0 12.0 0.00 0.00 0.00 71 1023.6
20210920153322 80 67 5.0 12.0 0.00 0.00 0.00 73 1023.7
20210920152828 80 54 5.0 12.0 0.00 0.00 0.00 73 1023.7
20210920152315 80 81 5.0 12.0 0.00 0.00 0.00 75 1023.8
20210920151818 79 50 5.0 12.0 0.00 0.00 0.00 74 1023.8
20210920151318 79 60 4.0 11.0 0.00 0.00 0.00 74 1023.8
20210920150807 79 103 5.0 11.0 0.00 0.00 0.00 73 1023.9
20210920150304 80 111 3.0 12.0 0.00 0.00 0.00 76 1024.0
20210920145754 79 94 5.0 12.0 0.00 0.00 0.00 76 1024.0
20210920145258 79 68 5.0 12.0 0.00 0.00 0.00 75 1024.0
20210920144748 79 37 3.0 12.0 0.00 0.00 0.00 75 1024.0
20210920144238 79 42 4.0 9.0 0.00 0.00 0.00 78 1024.1
20210920143732 78 94 5.0 9.0 0.00 0.00 0.00 79 1024.1
20210920143228 77 72 4.0 9.0 0.00 0.00 0.00 78 1024.1
20210920142727 78 70 2.0 10.0 0.00 0.00 0.00 77 1024.1
20210920142208 77 96 3.0 10.0 0.00 0.00 0.00 78 1024.0
20210920141651 78 61 4.0 10.0 0.00 0.00 0.00 78 1023.8
20210920141136 77 92 4.0 10.0 0.00 0.00 0.00 79 1023.8
20210920140641 77 44 3.0 10.0 0.00 0.00 0.00 79 1023.8
20210920140121 77 71 2.0 10.0 0.00 0.00 0.00 80 1023.8
20210920135614 76 338 3.0 14.0 0.00 0.00 0.00 81 1023.7
20210920135112 76 14 6.0 14.0 0.00 0.00 0.00 81 1023.7
20210920134614 76 142 6.0 14.0 0.00 0.00 0.00 81 1023.6
20210920134115 75 83 6.0 14.0 0.00 0.00 0.00 81 1023.7
20210920133613 75 74 5.0 9.0 0.00 0.00 0.00 82 1023.6
20210920133111 75 69 4.0 9.0 0.00 0.00 0.00 83 1023.4
20210920132600 75 98 4.0 10.0 0.00 0.00 0.00 83 1023.4
20210920132051 75 58 3.0 10.0 0.00 0.00 0.00 85 1023.3
20210920131543 75 61 3.0 11.0 0.00 0.00 0.00 85 1023.2
20210920131033 74 67 4.0 11.0 0.00 0.00 0.00 85 1023.2
20210920130517 73 96 5.0 11.0 0.00 0.00 0.00 87 1023.3
20210920130026 73 111 5.0 10.0 0.00 0.00 0.00 87 1023.2
20210920125507 73 56 4.0 10.0 0.00 0.00 0.00 87 1023.2
20210920125005 73 67 4.0 11.0 0.00 0.00 0.00 87 1023.2
20210920124455 72 53 6.0 11.0 0.00 0.00 0.00 88 1023.2
20210920124002 72 71 5.0 11.0 0.00 0.00 0.00 88 1023.1
20210920123448 72 34 4.0 11.0 0.00 0.00 0.00 88 1023.1
20210920122948 72 76 3.0 9.0 0.00 0.00 0.00 89 1023.1
20210920122436 72 44 3.0 9.0 0.00 0.00 0.00 89 1023.1
20210920121938 72 86 3.0 9.0 0.00 0.00 0.00 90 1023.1
20210920121424 72 338 3.0 9.0 0.00 0.00 0.00 90 1023.0
20210920120919 72 44 4.0 9.0 0.00 0.00 0.00 90 1023.0
20210920120429 72 54 4.0 10.0 0.00 0.00 0.00 90 1023.0
20210920115919 72 57 3.0 10.0 0.00 0.00 0.00 91 1022.9
20210920115422 72 51 3.0 10.0 0.00 0.00 0.00 91 1022.9
20210920114907 72 58 4.0 10.0 0.00 0.00 0.00 91 1022.8
20210920114404 72 34 3.0 10.0 0.00 0.00 0.00 91 1022.8
20210920113851 72 68 4.0 10.0 0.00 0.00 0.00 91 1022.8
20210920113352 72 82 4.0 10.0 0.00 0.00 0.00 91 1022.7
20210920112850 72 69 3.0 9.0 0.00 0.00 0.00 92 1022.7
20210920112344 72 82 4.0 9.0 0.00 0.00 0.00 92 1022.7
20210920111854 72 88 3.0 9.0 0.00 0.00 0.00 92 1022.6
20210920111402 72 58 3.0 9.0 0.00 0.00 0.00 92 1022.5
20210920110843 72 66 3.0 11.0 0.00 0.00 0.00 92 1022.5
20210920110344 72 75 3.0 11.0 0.00 0.00 0.00 92 1022.5
20210920105838 72 89 4.0 11.0 0.00 0.00 0.00 92 1022.4
20210920105332 72 63 3.0 11.0 0.00 0.00 0.00 92 1022.3
20210920104815 72 78 4.0 11.0 0.00 0.00 0.00 92 1022.3
20210920104302 72 65 4.0 11.0 0.00 0.00 0.00 92 1022.2
20210920103756 72 122 5.0 10.0 0.00 0.00 0.00 92 1022.2
20210920103258 72 70 4.0 10.0 0.00 0.00 0.00 92 1022.1
20210920102800 72 55 4.0 10.0 0.00 0.00 0.00 92 1022.1
20210920102241 72 84 3.0 9.0 0.00 0.00 0.00 92 1022.1
20210920101736 72 48 2.0 10.0 0.00 0.00 0.00 92 1022.2
20210920101245 72 59 3.0 10.0 0.00 0.00 0.00 92 1022.1
20210920100754 72 94 3.0 10.0 0.00 0.00 0.00 92 1022.0
20210920100237 72 59 3.0 10.0 0.00 0.00 0.00 92 1021.9
20210920095740 72 90 3.0 8.0 0.00 0.00 0.00 93 1021.9
20210920095230 72 68 3.0 8.0 0.00 0.00 0.00 93 1021.9
20210920094730 72 29 3.0 8.0 0.00 0.00 0.00 93 1021.9
20210920094217 72 56 3.0 8.0 0.00 0.00 0.00 93 1021.9
20210920093726 72 80 2.0 5.0 0.00 0.00 0.00 93 1021.9
20210920093208 72 59 2.0 5.0 0.00 0.00 0.00 93 1021.8
20210920092650 72 84 1.0 7.0 0.00 0.00 0.00 93 1021.8
20210920092135 72 88 2.0 7.0 0.00 0.00 0.00 93 1021.8
20210920091630 72 123 2.0 8.0 0.00 0.00 0.00 93 1021.8
20210920091136 72 97 2.0 8.0 0.00 0.00 0.00 93 1021.7
20210920090633 72 53 2.0 8.0 0.00 0.00 0.00 93 1021.7
20210920090123 72 111 3.0 8.0 0.00 0.00 0.00 93 1021.8
20210920085613 72 86 3.0 6.0 0.00 0.00 0.00 93 1021.7
20210920083850 71 77 1.0 4.0 0.00 0.00 0.00 94 1021.7
20210920083340 71 67 1.0 4.0 0.00 0.00 0.00 93 1021.7
20210920082834 71 73 0.0 4.0 0.00 0.00 0.00 93 1021.7
20210920082340 71 65 0.0 1.0 0.00 0.00 0.00 93 1021.7
20210920081825 71 92 0.0 0.0 0.00 0.00 0.00 94 1021.7
20210920081306 71 101 0.0 2.0 0.00 0.00 0.00 94 1021.7
20210920080805 71 101 0.0 2.0 0.00 0.00 0.00 93 1021.6
20210920080310 71 101 0.0 0.0 0.00 0.00 0.00 93 1021.6
20210920075815 71 101 0.0 0.0 0.00 0.00 0.00 93 1021.7
20210920075259 70 101 0.0 0.0 0.00 0.00 0.00 93 1021.7
20210920074744 70 101 0.0 0.0 0.00 0.00 0.00 93 1021.7
20210920074238 70 101 0.0 0.0 0.00 0.00 0.00 93 1021.7
20210920073725 70 101 0.0 1.0 0.00 0.00 0.00 93 1021.6
20210920073216 70 101 0.0 0.0 0.00 0.00 0.00 93 1021.6
20210920072710 70 101 0.0 0.0 0.00 0.00 0.00 93 1021.6
20210920072158 70 101 0.0 0.0 0.00 0.00 0.00 93 1021.7
20210920071653 70 101 0.0 0.0 0.00 0.00 0.00 93 1021.8
20210920071149 70 101 0.0 0.0 0.00 0.00 0.00 93 1021.9
20210920070658 70 101 0.0 0.0 0.00 0.00 0.00 93 1021.8
20210920070140 70 101 0.0 0.0 0.00 0.00 0.00 93 1021.8
20210920065649 70 101 0.0 0.0 0.00 0.00 0.00 93 1021.9
20210920065142 70 101 0.0 0.0 0.00 0.00 0.00 93 1021.8